Volver al catálogo

ATLAS 5 CENTAUR R/B

ActivoMEO
NORAD 53962·ROCKET BODY·🇺🇸 United States

Lanzado Oct 4, 2022 desde Cape Canaveral Space Force Station

Loading…

Próximos Pases (próximas 24 horas)

TLE

ActualizadoSource: Space-Track

Época: Sep 14, 2026, 12:43 UTC

1 53962U 22123C   26257.53003369 -.00000192  00000-0  00000-0 0  9999
2 53962   4.5878  96.9231 0307068 298.9219  58.3106  1.07591303 15517

Sigue ATLAS 5 CENTAUR R/B en tiempo real con AllMySat

Download on the App Store